Time[GMT],current_speed[cm/s](2m),current_direction[angular_degrees](2m),temperature[C](2m),current_u[cm/s](2m),current_v[cm/s](2m),dissolved_oxygen[ml/l](2m)
2011-10-08 15:00,30.21,119.4,15.44,26.33,-14.81,
2011-10-08 16:00,23.17,120.1,15.44,20.05,-11.61,
2011-10-08 17:00,16.42,107.4,15.50,15.67,-4.91,
2011-10-08 18:00,18.18,94.8,15.75,18.12,-1.51,
2011-10-08 19:00,19.06,78.9,16.00,18.71,3.66,
2011-10-08 20:00,18.18,83.5,16.07,18.07,2.06,
2011-10-08 21:00,14.37,81.0,15.97,14.20,2.24,
2011-10-08 22:00,16.72,96.9,16.13,16.60,-2.00,
2011-10-08 23:00,19.06,99.7,16.16,18.79,-3.20,
2011-10-09 00:00,1.76,346.1,-0.45,-0.42,1.71,
2011-10-09 01:00,22.88,103.9,16.07,22.21,-5.49,
2011-10-09 02:00,25.52,108.5,16.04,24.20,-8.08,
2011-10-09 03:00,27.57,104.6,16.04,26.68,-6.95,
2011-10-09 04:00,28.74,105.7,16.00,27.68,-7.76,
2011-10-09 05:00,29.04,103.5,16.04,28.23,-6.80,
2011-10-09 06:00,31.09,99.3,16.04,30.68,-5.04,
2011-10-09 07:00,28.74,108.5,16.00,27.26,-9.10,
2011-10-09 08:00,25.52,116.9,15.91,22.76,-11.55,
2011-10-09 09:00,17.30,139.4,15.88,11.26,-13.14,
2011-10-09 10:00,14.96,130.6,15.85,11.35,-9.74,
2011-10-09 11:00,15.84,126.0,15.75,12.81,-9.32,
2011-10-09 12:00,14.37,94.4,15.75,14.33,-1.10,
2011-10-09 13:00,19.36,114.1,15.78,17.67,-7.90,
2011-10-09 14:00,21.12,108.8,15.78,19.99,-6.81,
2011-10-09 15:00,24.34,119.0,15.66,21.29,-11.81,
2011-10-09 16:00,22.58,112.0,15.72,20.94,-8.45,
2011-10-09 17:00,22.58,110.9,15.63,21.09,-8.07,
2011-10-09 18:00,24.34,108.5,15.78,23.09,-7.71,
2011-10-09 19:00,20.82,107.8,15.94,19.83,-6.35,
2011-10-09 20:00,16.72,107.4,16.16,15.95,-5.00,
2011-10-09 21:00,9.09,120.8,16.07,7.81,-4.65,
2011-10-09 22:00,8.21,90.2,15.97,8.21,-0.03,
2011-10-09 23:00,3.52,294.5,16.04,-3.20,1.46,
2011-10-10 00:00,3.81,8.6,16.19,0.57,3.77,
2011-10-10 01:00,9.09,97.9,16.19,9.01,-1.25,
2011-10-10 02:00,19.65,101.1,15.85,19.28,-3.78,
2011-10-10 03:00,31.68,95.1,16.16,31.55,-2.82,
2011-10-10 04:00,33.14,101.8,16.00,32.44,-6.77,
2011-10-10 05:00,38.13,102.5,16.22,37.23,-8.25,
2011-10-10 06:00,35.78,98.6,15.97,35.38,-5.36,
2011-10-10 07:00,36.96,103.2,15.91,35.98,-8.43,
2011-10-10 08:00,27.57,107.4,15.69,26.31,-8.25,
2011-10-10 09:00,26.10,122.5,15.88,22.01,-14.04,
2011-10-10 10:00,17.60,122.2,15.78,14.89,-9.37,
2011-10-10 11:00,12.61,139.4,15.72,8.21,-9.58,
2011-10-10 12:00,14.96,201.3,15.78,-5.43,-13.94,
2011-10-10 13:00,10.85,232.6,15.75,-8.62,-6.59,
2011-10-10 14:00,0.88,142.9,15.85,0.53,-0.70,
2011-10-10 15:00,9.68,52.6,15.78,7.69,5.88,
2011-10-10 16:00,16.13,81.0,15.97,15.93,2.51,
2011-10-10 17:00,29.33,98.6,15.78,29.00,-4.40,
2011-10-10 18:00,33.73,95.8,15.88,33.56,-3.41,
2011-10-10 19:00,31.68,90.5,15.88,31.68,-0.30,
2011-10-10 20:00,27.86,94.8,15.91,27.77,-2.31,
2011-10-10 21:00,26.69,96.2,16.29,26.54,-2.86,
2011-10-10 22:00,19.06,90.5,16.22,19.06,-0.18,
2011-10-10 23:00,16.72,80.0,15.97,16.46,2.91,
2011-10-11 00:00,20.24,96.5,16.13,20.11,-2.30,
2011-10-11 01:00,19.06,113.7,16.32,17.45,-7.68,
2011-10-11 02:00,20.82,134.1,16.29,14.95,-14.50,
2011-10-11 03:00,21.70,127.5,16.22,17.23,-13.20,
2011-10-11 04:00,23.76,107.8,16.22,22.62,-7.25,
2011-10-11 05:00,24.34,108.5,16.19,23.09,-7.71,
2011-10-11 06:00,20.53,110.2,16.22,19.27,-7.10,
2011-10-11 07:00,17.01,103.2,16.22,16.56,-3.88,
2011-10-11 08:00,20.24,100.0,16.16,19.93,-3.52,
2011-10-11 09:00,12.91,93.3,16.16,12.88,-0.75,
2011-10-11 10:00,5.57,69.8,16.13,5.23,1.93,
2011-10-11 11:00,2.64,46.9,16.04,1.93,1.80,
2011-10-11 12:00,4.69,293.1,16.00,-4.32,1.84,
2011-10-11 13:00,3.52,262.1,16.00,-3.49,-0.48,
2011-10-11 14:00,5.28,36.7,16.00,3.16,4.23,
2011-10-11 15:00,5.87,83.9,16.00,5.83,0.63,
2011-10-11 16:00,16.72,67.3,15.97,15.43,6.44,
2011-10-11 17:00,23.76,69.8,16.00,22.29,8.21,
2011-10-11 19:00,23.76,69.8,16.00,22.29,8.21,
2011-10-11 20:00,29.62,72.3,16.07,28.21,9.03,
2011-10-11 21:00,30.50,72.3,16.00,29.05,9.30,
2011-10-11 22:00,29.33,65.9,15.97,26.78,11.97,
2011-10-11 23:00,28.45,63.5,15.88,25.45,12.71,
2011-10-12 00:00,26.98,64.2,15.88,24.29,11.76,
2011-10-12 01:00,25.52,75.8,15.78,24.73,6.27,
2011-10-12 02:00,25.81,90.5,15.78,25.81,-0.24,
2011-10-12 03:00,24.05,95.1,15.75,23.96,-2.14,
2011-10-12 04:00,31.38,86.7,15.78,31.33,1.82,
2011-10-12 05:00,31.09,92.6,15.78,31.06,-1.43,
2011-10-12 06:00,41.94,80.0,15.75,41.30,7.29,
2011-10-12 07:00,36.08,74.4,15.75,34.74,9.73,
2011-10-12 08:00,36.08,84.6,15.75,35.91,3.42,
2011-10-12 09:00,31.68,81.7,15.75,31.35,4.55,
2011-10-12 10:00,22.88,74.4,15.72,22.03,6.17,
2011-10-12 11:00,12.03,58.2,15.75,10.22,6.34,
2011-10-12 12:00,14.96,51.9,15.75,11.76,9.24,
2011-10-12 13:00,13.49,49.0,15.75,10.19,8.84,
2011-10-12 14:00,12.61,56.1,15.75,10.47,7.04,
2011-10-12 15:00,13.79,50.1,15.78,10.58,8.84,
2011-10-12 16:00,18.48,57.1,15.75,15.52,10.03,
2011-10-12 17:00,24.64,63.8,15.72,22.11,10.87,
2011-10-12 18:00,31.38,71.9,15.66,29.83,9.75,
2011-10-12 19:00,36.66,70.5,15.63,34.56,12.24,
2011-10-12 20:00,37.84,75.4,15.59,36.62,9.53,
2011-10-12 21:00,36.96,74.7,15.50,35.65,9.74,
2011-10-12 22:00,32.26,80.0,15.44,31.77,5.61,
2011-10-12 23:00,19.36,82.8,15.44,19.21,2.43,
2011-10-13 00:00,6.75,67.3,15.44,6.22,2.60,
2011-10-13 01:00,10.56,36.4,15.41,6.26,8.50,
2011-10-13 02:00,9.97,36.4,15.41,5.92,8.03,
2011-10-13 03:00,9.97,13.9,15.41,2.39,9.68,
2011-10-13 04:00,16.42,63.8,15.41,14.74,7.25,
2011-10-13 05:00,23.17,52.2,15.34,18.31,14.20,
2011-10-13 06:00,24.93,57.1,15.37,20.94,13.53,
2011-10-13 07:00,31.97,75.4,15.34,30.94,8.05,
2011-10-13 08:00,34.90,76.1,15.37,33.88,8.37,
2011-10-13 09:00,26.40,70.1,15.34,24.83,8.97,
2011-10-13 10:00,34.32,55.0,15.59,28.12,19.67,
2011-10-13 11:00,8.80,42.0,15.53,5.89,6.54,
2011-10-13 12:00,7.92,344.0,15.50,-2.18,7.61,
2011-10-13 13:00,9.09,8.6,15.53,1.36,8.99,
2011-10-13 14:00,12.03,18.8,15.53,3.88,11.38,
2011-10-13 15:00,9.97,4.0,15.56,0.70,9.95,
2011-10-13 16:00,13.79,46.6,15.53,10.01,9.47,
2011-10-13 17:00,17.30,56.1,15.56,14.36,9.66,
2011-10-13 18:00,24.93,65.2,15.59,22.63,10.45,
2011-10-13 19:00,31.38,75.8,15.59,30.42,7.72,
2011-10-13 20:00,35.49,65.9,15.66,32.40,14.48,
2011-10-13 21:00,39.60,85.6,15.66,39.48,3.03,
2011-10-13 22:00,34.32,87.4,15.59,34.28,1.57,
2011-10-13 23:00,22.29,102.1,15.63,21.79,-4.69,
2011-10-14 00:00,20.53,115.1,15.59,18.59,-8.72,
2011-10-14 01:00,16.13,123.2,15.59,13.49,-8.84,
2011-10-14 02:00,13.49,140.1,15.56,8.65,-10.35,
2011-10-14 03:00,17.01,150.3,15.53,8.43,-14.78,
2011-10-14 04:00,17.89,159.1,15.53,6.38,-16.71,
2011-10-14 05:00,19.36,154.5,15.50,8.33,-17.48,
2011-10-14 06:00,17.30,153.5,15.47,7.73,-15.48,
2011-10-14 07:00,14.08,127.8,15.44,11.12,-8.63,
2011-10-14 08:00,14.66,99.3,15.41,14.47,-2.38,
2011-10-14 09:00,18.77,90.2,15.44,18.77,-0.06,
2011-10-14 10:00,16.72,90.2,15.44,16.72,-0.05,
2011-10-14 11:00,17.30,103.2,15.44,16.85,-3.95,
2011-10-14 13:00,17.60,42.0,15.50,11.78,13.07,
2011-10-14 14:00,18.77,42.4,15.56,12.65,13.87,
2011-10-14 15:00,16.42,58.9,15.63,14.06,8.49,
2011-10-14 16:00,17.01,75.4,15.66,16.46,4.28,
2011-10-14 17:00,29.92,88.4,15.66,29.91,0.82,
2011-10-14 18:00,33.73,81.4,15.66,33.35,5.05,
2011-10-14 19:00,39.01,82.4,15.72,38.67,5.13,
2011-10-14 20:00,39.30,82.1,15.69,38.93,5.40,
2011-10-14 21:00,36.37,94.4,15.66,36.26,-2.79,
2011-10-14 22:00,35.20,94.8,15.69,35.07,-2.92,
2011-10-14 23:00,29.04,94.1,15.69,28.96,-2.05,
2011-10-15 00:00,20.24,108.8,15.66,19.16,-6.53,
2011-10-15 01:00,9.68,102.8,15.66,9.44,-2.15,
2011-10-15 02:00,11.15,71.9,15.63,10.59,3.46,
2011-10-15 03:00,16.13,86.0,15.63,16.09,1.14,
2011-10-15 04:00,21.70,75.1,15.63,20.97,5.59,
2011-10-15 05:00,,,,,,
2011-10-15 06:00,,,,,,
2011-10-15 07:00,56.31,89.8,15.50,56.31,0.17,
2011-10-15 08:00,61.01,91.6,15.47,60.98,-1.69,
2011-10-15 09:00,55.43,97.2,15.44,54.99,-6.96,
2011-10-15 10:00,6.75,355.3,0.12,-0.56,6.72,
2011-10-15 11:00,45.46,108.1,15.28,43.21,-14.13,
2011-10-15 12:00,32.85,116.6,15.25,29.38,-14.68,
2011-10-15 13:00,27.57,105.7,15.22,26.55,-7.44,
2011-10-15 14:00,,,,,,
2011-10-15 15:00,21.70,96.5,15.22,21.56,-2.46,
2011-10-15 16:00,15.54,73.3,15.22,14.89,4.47,
2011-10-15 17:00,24.34,97.2,15.22,24.15,-3.06,
2011-10-15 18:00,,,,,,
2011-10-15 20:00,39.01,93.7,15.41,38.93,-2.52,
2011-10-15 21:00,36.08,99.3,15.37,35.60,-5.85,
2011-10-15 22:00,36.08,103.9,15.37,35.02,-8.66,
2011-10-15 23:00,35.49,91.2,15.41,35.48,-0.77,
2011-10-16 00:00,23.46,94.8,15.37,23.38,-1.94,
2011-10-16 01:00,18.48,76.5,15.34,17.97,4.32,
2011-10-16 02:00,23.76,70.8,15.34,22.44,7.80,
2011-10-16 03:00,25.81,72.3,15.31,24.58,7.87,
2011-10-16 04:00,19.65,75.8,15.28,19.05,4.83,
2011-10-16 05:00,24.34,93.7,15.25,24.29,-1.57,
2011-10-16 07:00,,,,,,
2011-10-16 08:00,39.01,96.5,15.22,38.76,-4.42,
2011-10-16 09:00,39.01,94.8,15.19,38.87,-3.23,
2011-10-16 10:00,38.72,92.3,15.19,38.68,-1.55,
2011-10-16 11:00,34.90,86.0,15.19,34.82,2.46,
2011-10-16 12:00,30.21,78.9,15.15,29.65,5.80,
2011-10-16 13:00,21.70,73.7,15.15,20.83,6.11,
2011-10-16 14:00,18.48,51.9,15.15,14.53,11.41,
2011-10-16 15:00,17.89,75.8,15.15,17.34,4.40,
2011-10-16 16:00,15.84,57.8,15.19,13.41,8.43,
2011-10-16 17:00,18.48,83.2,15.19,18.35,2.20,
2011-10-16 18:00,26.40,75.4,15.22,25.55,6.65,
2011-10-16 19:00,32.56,85.6,15.22,32.46,2.49,
2011-10-16 20:00,34.32,86.7,15.22,34.26,1.99,
2011-10-16 21:00,36.66,82.8,15.19,36.37,4.60,
2011-10-16 22:00,35.20,87.7,15.19,35.17,1.40,
2011-10-16 23:00,36.37,78.6,15.19,35.65,7.20,
2011-10-17 00:00,27.28,68.4,15.15,25.36,10.05,
2011-10-17 01:00,17.30,254.0,,-16.63,-4.77,
2011-10-17 02:00,18.18,52.2,15.03,14.37,11.14,
2011-10-17 03:00,18.18,50.1,15.03,13.95,11.66,
2011-10-17 04:00,10.85,22.0,15.03,4.06,10.06,
2011-10-17 05:00,14.96,7.9,15.12,2.06,14.82,
2011-10-17 06:00,16.13,36.4,15.12,9.57,12.99,
2011-10-17 07:00,,,,,,
2011-10-17 08:00,31.09,63.5,15.12,27.81,13.89,
2011-10-17 09:00,32.26,68.0,15.12,29.92,12.07,
2011-10-17 10:00,36.08,83.9,15.12,35.87,3.86,
2011-10-17 11:00,37.84,94.1,15.12,37.74,-2.67,
2011-10-17 12:00,34.32,96.9,15.15,34.07,-4.10,
2011-10-17 13:00,27.57,105.3,15.15,26.59,-7.28,
2011-10-17 14:00,23.46,117.6,15.19,20.79,-10.87,
2011-10-17 15:00,17.30,133.4,15.22,12.57,-11.90,
2011-10-17 16:00,12.91,136.6,15.25,8.87,-9.38,
2011-10-17 17:00,12.32,129.9,15.25,9.45,-7.90,
2011-10-17 18:00,11.44,145.0,15.28,6.56,-9.37,
2011-10-17 19:00,17.89,113.4,15.28,16.42,-7.10,
2011-10-17 20:00,16.42,86.7,15.28,16.40,0.95,
2011-10-17 21:00,21.41,82.4,15.28,21.23,2.81,
2011-10-17 22:00,25.22,82.4,15.25,25.01,3.32,
2011-10-17 23:00,20.82,70.1,15.22,19.59,7.07,
2011-10-18 00:00,21.41,52.6,15.22,17.00,13.02,
2011-10-18 01:00,17.30,48.3,15.19,12.93,11.50,
2011-10-18 02:00,25.22,28.7,15.15,12.09,22.13,
2011-10-18 03:00,26.69,26.5,15.15,11.93,23.88,
2011-10-18 04:00,31.09,35.7,15.12,18.14,25.25,
2011-10-18 05:00,25.22,45.5,15.12,18.00,17.67,
2011-10-18 06:00,25.81,44.8,15.15,18.20,18.31,
2011-10-18 07:00,28.45,55.0,15.12,23.31,16.31,
2011-10-18 08:00,26.10,65.9,15.15,23.83,10.65,
2011-10-18 09:00,29.04,83.5,15.12,28.85,3.29,
2011-10-18 10:00,25.22,82.4,15.06,25.01,3.32,
2011-10-18 11:00,24.93,82.1,15.03,24.69,3.43,
2011-10-18 12:00,22.29,88.1,15.00,22.28,0.75,
2011-10-18 13:00,13.49,73.3,15.00,12.92,3.88,
2011-10-18 14:00,10.56,59.9,15.00,9.14,5.29,
2011-10-18 15:00,5.87,30.4,15.00,2.97,5.06,
2011-10-18 16:00,10.56,46.6,15.03,7.67,7.26,
2011-10-18 17:00,17.30,27.6,15.15,8.02,15.34,
2011-10-18 18:00,17.60,13.9,15.19,4.22,17.08,
2011-10-18 19:00,15.84,24.1,15.22,6.46,14.46,
2011-10-18 20:00,19.94,42.7,15.25,13.53,14.65,
2011-10-18 21:00,31.68,39.6,15.31,20.17,24.42,
2011-10-18 22:00,31.97,38.5,15.15,19.90,25.02,
2011-10-18 23:00,33.14,42.0,15.09,22.18,24.62,
2011-10-19 00:00,30.80,49.7,15.06,23.50,19.90,
2011-10-19 01:00,27.86,42.4,15.00,18.78,20.59,
2011-10-19 02:00,27.57,46.6,14.97,20.03,18.95,
2011-10-19 03:00,27.28,46.6,15.03,19.81,18.75,
2011-10-19 04:00,19.94,45.5,15.00,14.23,13.97,
2011-10-19 05:00,16.42,0.5,14.97,0.15,16.42,
2011-10-19 06:00,14.08,3.7,14.97,0.91,14.05,
2011-10-19 07:00,13.49,6.9,14.97,1.61,13.40,
2011-10-19 08:00,24.05,17.8,15.00,7.33,22.91,
2011-10-19 09:00,26.40,31.8,14.97,13.92,22.43,
2011-10-19 10:00,29.33,38.8,14.97,18.40,22.84,
2011-10-19 11:00,27.86,41.0,14.90,18.27,21.04,
2011-10-19 12:00,29.92,53.3,14.87,23.98,17.89,
2011-10-19 13:00,23.46,63.5,14.93,20.99,10.48,
2011-10-19 14:00,17.89,49.4,14.97,13.58,11.64,
2011-10-19 15:00,13.20,6.2,14.97,1.41,13.12,
2011-10-19 16:00,19.94,348.2,15.00,-4.07,19.52,
2011-10-19 17:00,26.40,328.9,15.00,-13.63,22.61,
2011-10-19 18:00,21.12,330.7,15.00,-10.34,18.41,
2011-10-19 19:00,18.77,328.6,15.00,-9.79,16.02,
2011-10-19 20:00,18.48,330.7,15.00,-9.05,16.11,
2011-10-19 21:00,19.94,0.9,14.97,0.31,19.94,
2011-10-19 22:00,16.13,25.5,14.97,6.94,14.56,
2011-10-19 23:00,10.85,13.2,14.90,2.47,10.57,
2011-10-20 00:00,16.42,64.2,14.87,14.78,7.16,
2011-10-20 02:00,12.91,46.6,14.84,9.37,8.87,
2011-10-20 03:00,6.45,16.7,14.87,1.85,6.18,
2011-10-20 04:00,7.04,298.7,14.84,-6.18,3.38,
2011-10-20 05:00,10.85,299.7,14.84,-9.42,5.38,
2011-10-20 06:00,10.56,232.2,14.84,-8.35,-6.47,
2011-10-20 07:00,11.73,254.7,14.84,-11.32,-3.09,
2011-10-20 08:00,9.68,274.4,14.84,-9.65,0.75,
2011-10-20 09:00,4.40,199.2,14.84,-1.45,-4.16,
2011-10-20 10:00,6.16,98.3,14.84,6.10,-0.89,
2011-10-20 11:00,12.32,103.5,14.84,11.98,-2.88,
2011-10-20 12:00,14.96,78.2,14.84,14.64,3.05,
2011-10-20 13:00,17.89,99.3,14.87,17.65,-2.90,
2011-10-20 14:00,,,,,,
2011-10-20 15:00,11.44,93.7,14.93,11.41,-0.74,
2011-10-20 16:00,9.39,52.9,15.00,7.49,5.66,
2011-10-20 17:00,13.20,41.0,15.09,8.65,9.97,
2011-10-20 18:00,18.48,16.0,15.09,5.09,17.76,
2011-10-20 19:00,21.70,25.8,15.03,9.46,19.53,
2011-10-20 20:00,21.70,25.8,15.03,9.46,19.53,
2011-10-20 21:00,22.00,52.9,15.00,17.55,13.26,
2011-10-20 22:00,31.09,65.9,14.97,28.38,12.68,
2011-10-20 23:00,35.49,74.0,14.97,34.12,9.78,
2011-10-21 00:00,34.61,78.9,14.93,33.97,6.64,
2011-10-21 01:00,39.89,84.6,14.90,39.71,3.78,
2011-10-21 02:00,33.73,87.4,14.87,33.69,1.55,
2011-10-21 03:00,,,,,,
2011-10-21 04:00,23.76,89.1,14.81,23.75,0.36,
2011-10-21 05:00,20.82,104.2,14.78,20.18,-5.12,
2011-10-21 06:00,13.79,96.5,14.78,13.70,-1.56,
2011-10-21 07:00,11.44,76.1,14.75,11.10,2.74,
2011-10-21 08:00,,,,,,
2011-10-21 09:00,14.08,82.4,14.71,13.96,1.85,
2011-10-21 10:00,20.53,66.6,14.68,18.85,8.15,
2011-10-21 11:00,29.92,86.7,14.68,29.87,1.74,
2011-10-21 13:00,40.18,87.7,14.62,40.15,1.60,
2011-10-21 14:00,39.60,82.8,14.62,39.28,4.96,
2011-10-21 15:00,36.96,87.7,14.62,36.93,1.47,
2011-10-21 16:00,37.25,82.1,14.62,36.90,5.12,
2011-10-21 17:00,20.82,93.0,14.59,20.80,-1.09,
2011-10-21 18:00,15.25,87.0,14.59,15.23,0.79,
2011-10-21 19:00,17.89,68.4,14.62,16.63,6.59,
2011-10-21 20:00,11.44,76.1,14.59,11.10,2.74,
2011-10-21 21:00,12.91,95.8,14.59,12.84,-1.31,
2011-10-21 22:00,11.15,61.4,14.59,9.78,5.34,
2011-10-21 23:00,16.72,81.0,14.56,16.51,2.60,
2011-10-22 00:00,22.58,76.5,14.53,21.96,5.28,
2011-10-22 01:00,20.82,76.8,14.49,20.28,4.75,
2011-10-22 02:00,22.88,65.6,14.49,20.83,9.46,
2011-10-22 03:00,28.74,59.6,14.46,24.79,14.55,
2011-10-22 04:00,29.04,60.6,14.43,25.31,14.23,
2011-10-22 05:00,22.88,51.5,14.46,17.91,14.24,
2011-10-22 06:00,19.36,49.4,14.46,14.70,12.60,
2011-10-22 07:00,16.13,35.7,14.46,9.41,13.10,
2011-10-22 08:00,12.91,46.9,14.43,9.43,8.81,
2011-10-22 09:00,12.91,54.0,14.43,10.44,7.59,
2011-10-22 10:00,13.49,60.6,14.40,11.76,6.61,
2011-10-22 11:00,22.00,54.0,14.43,17.79,12.94,
2011-10-22 12:00,31.38,62.4,14.65,27.81,14.54,
2011-10-22 13:00,29.62,67.7,14.68,27.40,11.25,
2011-10-22 14:00,31.97,68.4,14.68,29.72,11.78,
2011-10-22 15:00,31.97,64.9,14.65,28.94,13.58,
2011-10-22 16:00,26.98,70.1,14.53,25.38,9.17,
2011-10-22 17:00,19.06,80.3,14.53,18.79,3.20,
2011-10-22 18:00,24.93,78.2,14.68,24.41,5.09,
2011-10-22 19:00,15.25,64.2,14.68,13.73,6.65,
2011-10-22 20:00,12.91,43.1,14.68,8.81,9.43,
2011-10-22 21:00,13.20,55.0,14.68,10.81,7.57,
2011-10-22 22:00,14.08,50.8,14.71,10.91,8.90,
2011-10-22 23:00,14.37,51.2,14.71,11.19,9.01,
2011-10-23 00:00,19.65,53.6,14.75,15.82,11.66,
2011-10-23 01:00,26.98,65.6,14.68,24.57,11.16,
2011-10-23 02:00,31.09,77.9,14.62,30.40,6.53,
2011-10-23 03:00,29.92,81.0,14.56,29.55,4.66,
2011-10-23 04:00,28.16,75.8,14.53,27.29,6.92,
2011-10-23 05:00,26.69,73.7,14.46,25.61,7.51,
2011-10-23 06:00,12.61,72.6,14.40,12.03,3.77,
2011-10-23 07:00,5.28,75.1,14.37,5.10,1.36,
2011-10-23 08:00,6.45,323.6,14.34,-3.82,5.20,
2011-10-23 09:00,13.49,343.3,14.40,-3.87,12.93,
2011-10-23 10:00,11.15,356.0,14.43,-0.79,11.12,
2011-10-23 11:00,14.08,8.6,14.53,2.11,13.92,
2011-10-23 12:00,14.96,33.6,14.49,8.27,12.46,
2011-10-23 13:00,23.17,50.5,14.53,17.87,14.75,
2011-10-23 15:00,27.86,56.8,14.56,23.31,15.26,
2011-10-23 16:00,25.22,59.9,14.59,21.83,12.63,
2011-10-23 17:00,29.04,74.7,14.53,28.01,7.66,
2011-10-23 18:00,21.70,76.1,14.84,21.07,5.21,
2011-10-23 19:00,11.44,41.0,14.68,7.50,8.64,
2011-10-23 20:00,8.21,11.4,14.90,1.63,8.05,
2011-10-23 21:00,10.85,344.7,14.78,-2.86,10.47,
2011-10-23 22:00,18.77,42.0,15.12,12.56,13.95,
2011-10-23 23:00,17.30,46.6,14.90,12.57,11.89,
2011-10-24 00:00,24.05,55.4,14.87,19.79,13.67,
2011-10-24 01:00,29.33,61.7,14.84,25.83,13.90,
2011-10-24 02:00,30.80,65.6,14.78,28.04,12.74,
2011-10-24 03:00,31.09,67.0,14.65,28.61,12.16,
2011-10-24 04:00,31.97,76.8,14.62,31.13,7.29,
2011-10-24 05:00,28.45,72.6,14.59,27.15,8.51,
2011-10-24 06:00,25.22,62.4,14.49,22.35,11.68,
2011-10-24 07:00,16.13,38.8,14.43,10.12,12.56,
2011-10-24 08:00,12.32,357.0,14.46,-0.64,12.30,
2011-10-24 09:00,14.37,341.9,14.46,-4.46,13.66,
2011-10-24 10:00,16.72,340.2,14.49,-5.67,15.73,
2011-10-24 11:00,16.72,337.0,14.56,-6.53,15.39,
2011-10-24 12:00,12.61,12.8,14.53,2.80,12.30,
2011-10-24 13:00,16.13,21.6,14.59,5.94,15.00,
2011-10-24 14:00,30.21,39.9,14.62,19.38,23.17,
2011-10-24 15:00,34.32,46.2,14.65,24.78,23.74,
2011-10-24 16:00,43.41,48.7,14.75,32.61,28.65,
2011-10-24 17:00,45.75,46.2,14.81,33.04,31.65,
2011-10-24 18:00,42.82,41.0,14.78,28.07,32.34,
2011-10-24 19:00,35.78,35.7,14.56,20.87,29.06,
2011-10-24 20:00,22.88,20.2,14.31,7.91,21.47,
2011-10-24 21:00,21.41,355.6,14.27,-1.64,21.35,
2011-10-24 22:00,23.46,346.8,14.34,-5.35,22.85,
2011-10-24 23:00,31.68,356.3,14.40,-2.04,31.61,
2011-10-25 00:00,24.93,0.2,14.46,0.08,24.93,
2011-10-25 01:00,28.74,15.6,14.46,7.75,27.68,
2011-10-25 02:00,28.45,37.8,14.34,17.44,22.48,
2011-10-25 03:00,39.60,55.0,14.27,32.44,22.70,
2011-10-25 04:00,39.30,54.3,14.21,31.92,22.92,
2011-10-25 05:00,40.18,61.7,14.02,35.38,19.05,
2011-10-25 06:00,36.66,69.4,13.99,34.33,12.88,
2011-10-25 07:00,23.17,72.6,13.96,22.11,6.93,
2011-10-25 08:00,12.03,74.0,13.99,11.56,3.31,
2011-10-25 09:00,4.11,67.0,13.99,3.78,1.61,
2011-10-25 10:00,7.92,289.9,13.99,-7.45,2.69,
2011-10-25 11:00,12.61,324.7,13.93,-7.29,10.29,
2011-10-25 12:00,10.56,8.6,13.93,1.58,10.44,
2011-10-25 13:00,14.66,23.4,13.96,5.82,13.46,
2011-10-25 14:00,15.84,54.3,13.96,12.87,9.24,
2011-10-25 15:00,29.33,62.4,13.96,25.99,13.59,
2011-10-25 16:00,29.62,76.8,13.96,28.84,6.75,
2011-10-25 17:00,31.09,78.9,13.96,30.51,5.97,
2011-10-25 18:00,27.57,81.4,13.99,27.26,4.13,
2011-10-25 19:00,27.86,93.0,14.02,27.83,-1.46,
2011-10-25 20:00,16.13,111.6,14.06,15.00,-5.95,
2011-10-25 21:00,10.27,144.3,14.02,5.99,-8.34,
2011-10-25 22:00,2.93,238.9,13.99,-2.51,-1.51,
2011-10-25 23:00,5.57,310.3,13.99,-4.25,3.60,
2011-10-26 00:00,4.99,289.5,13.96,-4.70,1.67,
2011-10-26 01:00,6.45,354.5,13.93,-0.61,6.42,
2011-10-26 02:00,9.39,56.1,13.90,7.79,5.24,
2011-10-26 03:00,23.46,78.2,13.87,22.97,4.79,
2011-10-26 04:00,31.09,68.0,13.87,28.83,11.63,
2011-10-26 05:00,32.85,88.8,13.87,32.84,0.70,
2011-10-26 06:00,34.90,88.4,13.84,34.89,0.96,
2011-10-26 07:00,36.37,104.2,13.84,35.25,-8.95,
2011-10-26 09:00,14.08,138.0,13.77,9.42,-10.46,
2011-10-26 10:00,5.28,181.6,13.77,-0.15,-5.28,
2011-10-26 11:00,9.68,261.8,13.77,-9.58,-1.39,
2011-10-26 12:00,11.73,316.3,13.77,-8.11,8.48,
2011-10-26 13:00,15.25,347.2,13.74,-3.39,14.87,
2011-10-26 14:00,19.36,57.8,13.71,16.39,10.31,
2011-10-26 15:00,25.22,50.8,13.71,19.55,15.94,
2011-10-26 16:00,33.14,59.2,13.71,28.48,16.95,
2011-10-26 17:00,41.36,70.5,13.68,38.98,13.81,
2011-10-26 18:00,40.18,77.9,13.65,39.29,8.44,
2011-10-26 19:00,48.98,78.6,13.62,48.01,9.70,
2011-10-26 20:00,35.49,99.0,13.58,35.05,-5.54,
2011-10-26 21:00,24.64,102.8,13.46,24.02,-5.48,
2011-10-26 22:00,7.63,156.3,13.40,3.07,-6.98,
2011-10-26 23:00,9.68,254.4,13.40,-9.32,-2.61,
2011-10-27 00:00,14.96,283.2,13.46,-14.56,3.42,
2011-10-27 01:00,17.30,314.9,13.49,-12.27,12.21,
2011-10-27 02:00,15.25,10.4,13.52,2.75,15.00,
2011-10-27 03:00,18.18,49.7,13.49,13.88,11.75,
2011-10-27 04:00,31.09,59.2,13.46,26.72,15.90,
2011-10-27 05:00,36.37,71.9,13.43,34.57,11.30,
2011-10-27 06:00,49.27,79.3,13.43,48.42,9.16,
2011-10-27 07:00,43.12,84.6,13.33,42.92,4.09,
2011-10-27 08:00,46.34,93.7,13.52,46.24,-2.99,
2011-10-27 09:00,34.61,107.1,13.71,33.09,-10.15,
2011-10-27 10:00,17.01,138.4,13.71,11.30,-12.71,
2011-10-27 11:00,11.15,188.6,13.68,-1.67,-11.02,
2011-10-27 12:00,22.88,238.6,13.62,-19.52,-11.93,
2011-10-27 13:00,24.93,277.6,13.49,-24.71,3.29,
2011-10-27 14:00,12.61,279.7,13.43,-12.43,2.12,
2011-10-27 15:00,14.66,302.9,13.49,-12.31,7.97,
2011-10-27 16:00,8.80,347.9,13.65,-1.85,8.60,
2011-10-27 17:00,23.76,48.7,13.90,17.85,15.68,
2011-10-27 18:00,21.70,80.7,13.93,21.42,3.51,
2011-10-27 19:00,26.10,75.4,13.96,25.26,6.57,
2011-10-27 20:00,30.50,83.5,13.90,30.31,3.45,
2011-10-27 21:00,21.12,91.2,13.84,21.11,-0.46,
2011-10-27 22:00,14.37,136.6,13.80,9.88,-10.44,
2011-10-27 23:00,12.32,206.2,13.77,-5.44,-11.05,
2011-10-28 00:00,14.08,251.2,13.77,-13.33,-4.53,
2011-10-28 01:00,20.24,268.1,13.74,-20.23,-0.67,
2011-10-28 02:00,11.15,266.3,13.65,-11.12,-0.71,
2011-10-28 03:00,7.33,217.1,13.62,-4.42,-5.85,
2011-10-28 04:00,10.56,88.4,13.55,10.55,0.29,
2011-10-28 05:00,16.72,121.1,13.52,14.31,-8.64,
2011-10-28 06:00,,,,,,
2011-10-28 07:00,31.38,107.8,13.52,29.89,-9.57,
2011-10-28 08:00,34.61,106.7,13.49,33.15,-9.95,
2011-10-28 09:00,31.38,106.0,13.43,30.17,-8.65,
2011-10-28 10:00,24.93,113.4,13.40,22.88,-9.90,
2011-10-28 11:00,17.60,174.9,13.40,1.56,-17.53,
2011-10-28 12:00,18.18,206.2,13.40,-8.03,-16.31,
2011-10-28 13:00,18.48,246.6,13.40,-16.96,-7.33,
2011-10-28 14:00,10.56,230.1,13.40,-8.10,-6.77,
2011-10-28 15:00,4.40,171.8,13.36,0.63,-4.35,
2011-10-28 16:00,5.57,66.6,13.40,5.12,2.21,
2011-10-28 17:00,25.52,73.7,13.40,24.49,7.18,
2011-10-28 18:00,29.33,89.5,13.40,29.33,0.27,
2011-10-28 19:00,33.44,95.1,13.40,33.30,-2.98,
2011-10-28 20:00,34.61,94.4,13.33,34.51,-2.66,
2011-10-28 21:00,32.56,101.4,13.27,31.91,-6.45,
2011-10-28 22:00,26.98,121.1,13.24,23.10,-13.95,
2011-10-28 23:00,24.05,121.5,13.21,20.51,-12.56,
2011-10-29 00:00,14.37,161.2,13.21,4.63,-13.61,
2011-10-29 01:00,1.76,346.1,-0.45,-0.42,1.71,
2011-10-29 02:00,9.39,235.4,13.21,-7.73,-5.33,
2011-10-29 03:00,6.75,248.1,13.08,-6.26,-2.52,
2011-10-29 04:00,,,,,,
2011-10-29 05:00,,,,,,
2011-10-29 06:00,19.06,67.7,13.11,17.64,7.24,
2011-10-29 07:00,31.38,82.1,13.05,31.08,4.32,
2011-10-29 08:00,34.90,88.4,12.99,34.89,0.96,
2011-10-29 09:00,,345.8,,0.36,-1.42,
2011-10-29 10:00,26.98,106.4,12.93,25.89,-7.60,
2011-10-29 11:00,19.06,106.7,12.89,18.26,-5.48,
2011-10-29 12:00,11.73,159.8,12.86,4.05,-11.01,
2011-10-29 13:00,11.73,209.0,12.89,-5.69,-10.26,
2011-10-29 14:00,18.48,249.8,12.93,-17.34,-6.38,
2011-10-29 15:00,17.30,282.5,12.86,-16.89,3.75,
2011-10-29 16:00,14.08,282.5,12.89,-13.74,3.05,
2011-10-29 17:00,11.44,329.3,12.86,-5.84,9.83,
2011-10-29 18:00,16.72,31.1,12.86,8.64,14.31,
2011-10-29 19:00,11.44,71.9,12.89,10.87,3.55,
2011-10-29 20:00,19.36,85.6,12.89,19.30,1.48,
2011-10-29 21:00,28.16,82.8,12.86,27.93,3.53,
2011-10-29 22:00,25.81,98.3,12.83,25.54,-3.71,
2011-10-29 23:00,12.61,99.7,12.83,12.43,-2.12,